Regional Weather Roundup
Issued by NWS Boston, MA

Home | Current Version | Previous Version | Text Only | Print | Product List | Glossary On
Versions: 1 2 3 4 5 6 7 8 9 10 11 12 13 14 15 16 17 18 19 20 21 22 23 24 25 26 27
000
ASUS41 KBOX 241110
RWRBOX

REGIONAL WEATHER ROUNDUP
NATIONAL WEATHER SERVICE BOSTON/NORTON MA
700 AM EDT TUE APR 24 2018

NOTE:  "FAIR" INDICATES FEW OR NO CLOUDS BELOW 12,000 FEET WITH NO
SIGNIFICANT WEATHER AND/OR OBSTRUCTIONS TO VISIBILITY.

MAZALL-241200-
EASTERN MASSACHUSETTS

CITY           SKY/WX    TMP DP  RH WIND       PRES   REMARKS
BOSTON         FAIR      44  34  67 SW8       30.41R
BEVERLY        PTSUNNY   43  31  62 S6        30.40R
LAWRENCE       FAIR      44  28  53 S7        30.41R
BEDFORD        FAIR      42  31  64 S7        30.39R
BLUE HILL        N/A     41  34  76 SW14      30.39R
NORWOOD        FAIR      41  37  86 CALM      30.42R
MARSHFIELD     FAIR      43  34  70 SW6       30.43R
PLYMOUTH       FAIR      42  37  82 SW5       30.43R
TAUNTON        FAIR      34  33  96 CALM      30.43R
NEW BEDFORD    FAIR      33  32  96 CALM      30.43R
$$

MAZALL-241200-
CAPE COD AND THE ISLANDS

CITY           SKY/WX    TMP DP  RH WIND       PRES   REMARKS
FALMOUTH       FAIR      34  32  93 CALM      30.45
HYANNIS        FAIR      37  34  89 CALM      30.43R
CHATHAM        FAIR      46  42  86 SW7       30.46R
PROVINCETOWN   FAIR      44  38  79 S10       30.44R
NANTUCKET      FAIR      42  42 100 S5        30.45S
MARTHAS VNYRD  FAIR      31  31 100 CALM      30.44S
$$

MAZALL-241200-
CENTRAL AND WESTERN MASSACHUSETTS

CITY           SKY/WX    TMP DP  RH WIND       PRES   REMARKS
WORCESTER      FAIR      43  27  53 W13       30.38R
FITCHBURG      FAIR      43  32  65 CALM      30.38S
ORANGE         FAIR      32  30  92 CALM      30.41R
SPRINGFIELD    NOT AVBL
WESTFIELD      FAIR      33  30  88 CALM      30.41R
NORTH ADAMS    FAIR      38  26  62 E6        30.38R
PITTSFIELD     FAIR      34  27  75 CALM      30.37R
$$

RIZALL-241200-
RHODE ISLAND

CITY           SKY/WX    TMP DP  RH WIND       PRES   REMARKS
PROVIDENCE     FAIR      38  36  92 CALM      30.44R
NEWPORT        FAIR      42  40  92 S3        30.43R
BLOCK ISLAND   FAIR      46  41  82 S8        30.44R
SMITHFIELD     FAIR      37  35  92 MISG      30.42R
WESTERLY       FAIR      36  36 100 CALM      30.45R FOG
$$

CTZALL-241200-
CONNECTICUT

CITY           SKY/WX    TMP DP  RH WIND       PRES   REMARKS
BRADLEY INTL   PTSUNNY   40  36  86 S3        30.41R
HARTFORD       FAIR      40  36  86 S3        30.43R
BRIDGEPORT     FAIR      41  38  89 N3        30.43R
DANBURY        FAIR      33  30  88 CALM      30.43R
GROTON         FAIR      36  36 100 CALM      30.44R
NEW HAVEN      FAIR      37  34  89 CALM      30.43R
CHESTER          N/A     45  41  87 VRB3      30.43R
MERIDEN        FAIR      34  33  96 CALM      30.43R
WILLIMANTIC    FAIR      33  28  81 CALM      30.44R
OXFORD         FAIR      39  38  96 CALM      30.41S
$$

MEZ002-015-021-024-NHZ003-005-008-011-012-014-VTZ005-008-241200-
NORTHERN NEW ENGLAND

CITY           SKY/WX    TMP DP  RH WIND       PRES   REMARKS
PORTLAND ME    FAIR      43  26  51 SW6       30.37R
BANGOR ME      FAIR      42  29  59 S9        30.33S
CONCORD NH     FAIR      35  28  75 CALM      30.38R
MANCHESTER NH  FAIR      42  27  55 CALM      30.37R
NASHUA NH      FAIR      36  29  75 CALM      30.39R
PORTSMOUTH NH  NOT AVBL
JAFFREY NH     FAIR      34  30  85 S6        30.38R WCI  29
KEENE NH       FAIR      33  28  81 CALM      30.40R
BURLINGTON VT  PTSUNNY   53  23  31 S14G20    30.29R
MT. WASHINGTON PTSUNNY   32  21  64 W36G44      N/A  WCI  16
$$

NYZ052-076-241200-
EASTERN NEW YORK

CITY           SKY/WX    TMP DP  RH WIND       PRES   REMARKS
ALBANY         MOCLDY    47  28  47 S9        30.37R
NEW YORK CITY  MOCLDY    47  42  83 E6        30.40S
$$

ANZALL-241200-
MARINE OBSERVATIONS

STATION/POSITION TIME  TEMP    WIND        PRES    VSBY  WAVE
                       AIR SEA DIR/SP/G                  HT/PER
                 (UTC) (F)     (DEG/KT/KT) (MB)    (MI)  (FT/S)
BOSTON BUOY      1050   44 44  190/ 10/ 12 1028.8R         1/14
BUZZARDS BAY     1000   45     200/ 10/ 10 1031.2R
NANTUCKET SOUND  0950   44 44  200/  8/ 10 1030.7          1
MASS BAY-STELLWA 1004   43 43              1027.6F         1/ 3
ISLE OF SHOALS   1100   44     200/ 12/ 13 1028.9R
S OF BLOCK IS    1043      44                N/A           1/ 9
$$

......................KEY.........................
  SKY/WX - SKY CONDITION/PRESENT WEATHER
  TMP    - TEMPERATURE IN FAHRENHEIT
  DWPT   - DEWPOINT IN FAHRENHEIT
  RH     - RELATIVE HUMIDITY IN PERCENT
  WIND   - DIRECTION AND SPEED IN MPH
  PRES   - MEAN SEA LEVEL PRESSURE IN INCHES OF HG
  WCI    - WIND CHILL INDEX
  VSB    - VISIBILITY IN MILES
  HX     - HEAT INDEX
  TC     - TEMPERATURE IN CELSIUS
  VRB    - VARIABLE WIND DIRECTION
  N/A    - NOT AVAILABLE




USA.gov is the U.S. government's official web portal to all federal, state and local government web resources and services.